Location: *
(16.4681°N, 107.6342°E)
Time: 14:49:54
(UTC+00:00)

Daily predictions for brighter satellites

Satellite Brightness Start Highest point End
(mag) Time Altitude Azimuth Time Altitude Azimuth Time Altitude Azimuth
STARLINK-1094 3.9 12:04:05 10° NNW 12:08:05 48° NE 12:09:29 33° ESE
ARGOS 4.0 12:09:09 26° E 12:10:09 27° ENE 12:14:37 10° NNE
STARLINK-1117 3.7 12:09:01 10° NNW 12:13:04 56° NE 12:14:17 39° ESE
GPS 2-04 Rocket1 2.9 12:13:43 10° SW 12:17:37 51° SE 12:18:13 46° ESE
STARLINK-1078 3.6 12:13:56 10° NNW 12:18:02 65° NE 12:19:04 46° ESE
Meteor 2-10 4.1 12:13:13 10° S 12:18:28 85° W 12:23:55 10° N
CZ-2C R/B 3.7 12:15:56 10° NE 12:18:28 24° ENE 12:18:28 24° ENE
STARLINK-1108 3.5 12:18:54 10° NNW 12:23:01 76° NE 12:23:52 54° ESE
USA 234 3.7 12:16:56 10° NNE 12:23:20 61° NW 12:29:46 10° SW
Nadezhda 1 Rocket 4.1 12:17:50 10° SSE 12:23:58 50° E 12:30:06 10° NNE
GPS 2-18 Rocket1 4.5 12:21:52 10° SW 12:24:22 25° S 12:24:22 25° S
STARLINK-1071 3.5 12:23:50 10° NW 12:27:58 88° NE 12:28:38 62° SE
Meteor 1-16 Rocket 4.2 12:26:46 10° S 12:32:03 75° W 12:37:26 10° N
Ariane Rocket 2.8 12:30:05 32° SSE 12:32:29 73° ENE 12:37:32 10° N
STARLINK-1110 3.5 12:28:49 10° NW 12:32:57 80° SW 12:33:25 67° SSE
Delta 2 Rocket 4.2 12:28:52 10° WNW 12:33:11 50° SW 12:34:31 38° SSE
GPS 2-15 Rocket1 3.1 12:30:25 10° WNW 12:35:21 80° N 12:36:02 64° ENE
Cosmos 1726 3.5 12:32:51 10° SSW 12:36:21 39° W 12:39:52 10° NNW
STARLINK-1124 3.7 12:33:50 10° NW 12:37:56 69° SW 12:38:13 66° SSW
ATLAS 2AS CENTAUR RB 3.0 12:03:51 10° W 12:38:04 68° S 12:40:13 44° ESE
GEOS 3 Rocket 3.6 12:38:41 55° ENE 12:39:03 57° ENE 12:44:03 10° NNW
DMSP B5D2-2 3.9 12:34:57 10° NNE 12:40:08 68° ESE 12:45:21 10° S
Cosmos 1190 Rocket 3.9 12:35:25 10° S 12:40:43 82° ESE 12:46:02 10° NNE
STARLINK-1122 3.9 12:38:49 10° NW 12:42:52 59° SW 12:42:59 59° SW
Cosmos 1140 Rocket 3.3 12:37:59 10° S 12:43:11 73° ESE 12:48:21 10° NNE
ATLAS 5 CENTAUR R/B 2.8 12:40:03 10° SW 12:43:47 37° WNW 12:47:35 10° N
Meteor 1-21 Rocket 4.0 12:38:40 10° N 12:44:11 79° E 12:45:37 51° SSE
IRIDIUM 104 4.2 12:40:47 10° N 12:46:00 89° W 12:47:52 41° S
STARLINK-1126 4.2 12:43:50 10° NW 12:47:47 51° WSW 12:47:47 51° WSW
Centaur AC-119 3.1 12:38:45 10° WSW 12:52:02 83° NNW 12:52:36 71° NE
IRS-1A Rocket 4.3 12:50:45 35° S 12:53:15 75° WSW 12:58:56 10° NNW
MOS 1 Rocket 3.5 12:48:55 10° NNE 12:54:02 77° NE 12:54:02 77° NE
Cosmos 1726 Rocket 4.1 12:57:30 55° WNW 12:57:30 55° WNW 13:01:37 10° N
ATLAS 5 CENTAUR R/B 2.7 12:54:05 10° W 12:58:52 73° N 13:04:06 38° ENE
Ariane H10-3 3.9 12:59:15 10° SW 12:59:42 13° SW 12:59:42 13° SW
Cosmos 2074 Rocket 3.8 12:56:42 10° N 13:03:00 87° E 13:03:28 78° SSE
CZ-3A R/B 2.8 12:44:12 10° WNW 13:07:02 86° NNE 13:07:56 72° E
Yuri Rocket 4.4 12:58:14 10° WSW 13:08:19 88° NNW 13:09:44 65° ENE
Cosmos 1943 Rocket 2.5 13:06:45 10° NNW 13:11:52 64° W 13:11:52 64° W
Cosmos 2369 Rocket 2.8 13:07:31 10° NNW 13:11:32 48° NNW 13:11:32 48° NNW
Hubble Space Telescope 3.3 13:16:40 10° WNW 13:18:21 19° NW 13:18:21 19° NW
CZ-2C R/B 4.4 13:26:18 34° W 13:26:18 34° W 13:30:36 10° NW
H-2A R/B 4.1 13:36:02 22° WSW 13:37:05 24° W 13:41:14 10° NW
ATLAS 3B R/B 3.2 20:14:51 51° NNE 20:14:51 51° NNE 20:19:36 10° NNE
Nadezhda 4 Rocket 4.1 20:26:18 72° E 20:26:18 72° E 20:32:35 10° N
Cosmos 1867 4.0 20:33:51 57° NE 20:33:51 57° NE 20:38:11 10° NNE
Gbstr 26 Del rocket 3.9 20:33:21 84° NNE 20:33:21 84° NNE 20:39:06 10° NE
PAYLOAD A 4.4 20:29:56 10° NNE 20:34:24 60° NE 20:34:24 60° NE
Meteor 1-13 Rocket 4.3 20:35:58 77° ESE 20:36:01 77° E 20:41:45 10° N
CZ-2C R/B 3.0 20:35:02 10° NNE 20:38:38 50° NE 20:38:38 50° NE
Cosmos 2279 Rocket 3.9 20:36:26 10° N 20:41:58 68° NW 20:41:58 68° NW
Okean 2 Rocket 3.5 20:48:30 10° N 20:52:57 61° E 20:57:25 10° SSE
Cosmos 1378 Rocket 4.0 20:54:49 44° SE 20:55:51 58° E 21:00:06 10° NNE
GPS 2-12 Rocket1 3.0 20:57:47 72° E 20:57:47 72° E 21:01:47 10° ESE
Yuri Rocket 3.6 21:00:34 45° SSE 21:00:34 45° SSE 21:03:55 10° SE
Meteor 1-23 Rocket 4.4 20:59:48 10° S 21:05:24 73° E 21:11:05 10° N
STARLINK-60 4.1 21:06:33 41° ESE 21:06:33 41° ESE 21:08:55 10° SE
SL-16 R/B 3.1 21:02:58 10° N 21:08:26 48° ENE 21:13:52 10° SE
Cosmos 1048 Rocket 3.9 21:05:17 10° NNW 21:10:37 74° WSW 21:15:58 10° S
ARIANE 5 R/B 3.5 21:09:45 15° S 21:11:00 17° SSE 21:16:07 10° ESE
Centaur D-1AR AC-40 3.5 21:11:08 18° S 21:12:10 20° S 21:14:46 10° ESE
Fermi 4.3 21:13:14 43° S 21:13:49 46° SSE 21:17:48 10° E
Timation 1 Rocket 4.4 21:13:16 39° SW 21:15:11 56° WNW 21:21:04 10° N
CZ-4B R/B 3.8 21:11:07 10° NNE 21:15:28 56° E 21:19:54 10° S
ASTRO E2 4.3 21:19:50 18° NNW 21:22:04 30° NNE 21:25:35 10° E
Cosmos 1627 Rocket 4.3 21:19:00 10° S 21:25:10 75° W 21:31:17 10° N
Gblst 52 Del rocket 4.1 21:19:45 10° NW 21:25:31 86° NE 21:31:00 10° SE
Cosmos 2195 Rocket 4.4 21:20:13 10° SSW 21:26:15 64° W 21:32:22 10° N
Palapa 6 Rocket 3.9 21:25:35 27° NW 21:27:01 36° N 21:31:08 10° ENE
Spot 2 4.5 21:23:49 10° N 21:28:50 57° WNW 21:32:55 15° SSW
Cosmos 1356 3.2 21:26:59 10° N 21:30:23 71° W 21:33:46 10° S
FUSE 4.3 21:27:51 27° SW 21:30:34 57° SSE 21:35:47 10° ENE
Cosmos 1484 Rocket 2.5 21:28:15 10° N 21:32:00 88° W 21:35:42 10° SSW
Cosmos 2237 Rocket 3.6 21:35:27 19° SW 21:35:27 19° SW 21:37:37 10° SSW
Cosmos 2263 Rocket 2.5 21:30:36 26° SW 21:33:18 43° WNW 21:38:38 10° N
GPS 2-14 Rocket1 2.6 21:31:54 38° W 21:33:24 84° NNW 21:37:24 10° ENE
SL-4 R/B 4.1 21:36:15 15° SSW 21:36:15 15° SSW 21:37:38 10° S
Shenzhou-11 Module 4.2 21:36:10 12° NNW 21:36:10 12° NNW 21:36:43 10° N
Cosmos 1975 Rocket 3.8 21:32:06 10° S 21:36:18 54° E 21:40:32 10° NNE
BREEZE-M DEB (TANK) 1.6 21:34:46 30° SW 21:36:21 65° NW 21:38:45 10° NNE
Okean 1 Rocket 3.4 21:40:49 10° N 21:45:10 68° E 21:49:33 10° SSE
Cosmos 1437 Rocket 2.9 21:44:13 10° SSW 21:48:11 53° W 21:52:11 10° N
CZ-3B R/B 0.0 21:49:38 39° SSE 21:49:38 39° SSE 21:50:44 10° ESE
STARLINK-52 3.6 21:46:50 10° NNW 21:49:59 57° NE 21:53:08 10° SE
Cosmos 1378 3.0 21:47:30 10° SSW 21:51:09 61° W 21:54:49 10° N
STARLINK-1163 4.1 21:48:07 10° SSW 21:51:33 47° SE 21:54:59 10° NE
Lacrosse 4 Rocket 4.2 21:48:29 10° SSE 21:51:34 20° ESE 21:54:42 10° ENE
H-2A R/B 2.8 21:52:18 10° N 21:55:57 37° WNW 21:59:30 10° SW
STARLINK-1151 4.0 21:53:03 10° SSW 21:56:19 47° SE 21:59:36 10° NE
STARLINK-1133 4.0 21:54:06 10° SSW 21:57:24 49° SE 22:00:41 10° NE
STARLINK-1139 3.9 21:55:11 10° SSW 21:58:29 51° SE 22:01:47 10° NE
STARLINK-1174 3.8 21:56:17 10° SSW 21:59:36 53° SE 22:02:54 10° NE
Cosmos 1689 Rocket 3.7 21:59:45 10° SW 22:01:44 16° W 22:03:42 10° WNW
STARLINK-1180 3.7 21:58:28 10° SSW 22:01:49 58° SE 22:05:12 10° NE
STARLINK-1153 3.6 21:59:39 10° SSW 22:03:01 61° SE 22:06:24 10° NE
SWIFT 3.0 22:00:35 11° WNW 22:04:35 49° N 22:08:42 10° E
IUS-17 SRM-1 4.3 22:03:47 12° W 22:06:57 50° SSW 22:21:30 10° SE
Lacrosse 5 2.2 22:06:02 10° SSW 22:11:04 71° ESE 22:16:06 10° NE
Okean 2 3.7 22:07:40 10° SSW 22:11:36 44° W 22:15:32 10° NNW
STARLINK-1168 3.1 22:09:43 10° SW 22:13:08 89° SE 22:16:33 10° NE
STARLINK-1164 3.1 22:10:56 10° SW 22:14:21 87° WNW 22:17:46 10° NE
SJ-12 4.4 22:10:45 10° N 22:14:30 37° WNW 22:18:14 10° SW
STARLINK-1182 3.1 22:12:11 10° SW 22:15:36 84° WNW 22:19:01 10° NE
PAYLOAD B 4.3 22:11:48 10° NNE 22:17:19 90° ESE 22:22:50 10° SSW
Cosmos 1818 3.8 22:12:27 10° NNW 22:17:52 76° ENE 22:23:14 10° SSE
STARLINK-1172 3.1 22:14:58 10° SW 22:18:25 77° NW 22:21:52 10° NNE
GPS 2-04 Rocket1 3.9 22:16:13 10° W 22:19:18 23° SW 22:22:16 10° SSE
STARLINK-1145 3.1 22:16:21 10° SW 22:19:45 72° NW 22:23:11 10° NNE
SeaSat 1 2.5 22:15:24 10° SSE 22:20:15 62° WSW 22:25:07 10° NNW
Cosmos 1844 4.4 22:14:52 10° S 22:20:18 58° ESE 22:25:44 10° NNE
